Weather in Syntul

Russia / Ryazan Oblast     55°00′09″N   41°17′46″E
temp.,
°C
wind,
m/s
gust,
m/s
humid.,
%
clouds,
%
prec.,
mm/h
press.,
hPa
HPBL,
m
7 march, sun
sun700:00−13wsw239433 0.0 101464
03:00−14sw369317 0.0 1012105
06:00−13ssw499233 0.0 1010240
09:00−8ssw7148467 0.0 1006721
12:00−6sw81492100 0.9 10021084
15:00−4sw81593100 2.9 9971179
18:00−3sw61294100 1.6 994916
21:00−2wnw61195100 4.4 992920
8 march, mon
mon800:00−8w389367 0.1 994146
03:00−8w4119383 0.2 997484
06:00−10sw399486 0.0 997300
09:00−8sw489489 0.3 996483
12:00−4w5891100 1.6 997841
15:00−4nw6974100 2.6 10001323
18:00−8nw36870 0.1 1003103
21:00−11wnw229317 0.1 100721
9 march, tue
tue900:00−14wnw239620 0.0 100822
03:00−15nw239854 0.0 101031
06:00−14nw249784 0.1 1011135
09:00−13nnw359388 0.1 1013342
12:00−11nnw3587100 0.1 1014634
15:00−10nnw4586100 0.1 1015738
18:00−14nnw3892100 0.1 1016437
21:00−19nnw389680 0.1 1019191
10 march, wed
wed1000:00−21nw369817 0.0 1020132
03:00−23nw379817 0.0 1022163
06:00−25nw37980 0.0 1023164
09:00−23nnw36949 0.0 1025261
12:00−18nnw358661 0.0 1026523
15:00−15nnw358152 0.0 1026706
18:00−18nnw239146 0.0 102746
21:00−22nnw239523 0.0 102934
11 march, thu
thu1100:00−24nnw22960 0.0 103020
03:00−24nw22950 0.0 103120
06:00−25nw22960 0.0 103120
09:00−20wnw25920 0.0 1032195
12:00−13wnw24780 0.0 1031422
15:00−10wnw24800 0.0 1031564
18:00−14w22910 0.0 103220
21:00−17w22910 0.0 103320